owner,sensor,date,latitude,longitude,vertical_datum,sea_water_practical_salinity,qcFlag 
SCCF RECON,ioos:station:SCCF:13:1,2013-10-01T00:00:00Z,26.5255,-82.0032,2.32,3.19,1111122 
SCCF RECON,ioos:station:SCCF:13:1,2013-10-01T01:00:00Z,26.5255,-82.0032,2.42,12.8,1111122 
SCCF RECON,ioos:station:SCCF:13:1,2013-10-01T02:00:00Z,26.5255,-82.0032,2.51,14.85,1111122 
SCCF RECON,ioos:station:SCCF:13:1,2013-10-01T03:00:00Z,26.5255,-82.0032,2.58,19.76,1111122 
SCCF RECON,ioos:station:SCCF:13:1,2013-10-01T04:00:00Z,26.5255,-82.0032,2.57,22.79,1111122 
SCCF RECON,ioos:station:SCCF:13:1,2013-10-01T05:00:00Z,26.5255,-82.0032,2.55,25.17,1111122 
SCCF RECON,ioos:station:SCCF:13:1,2013-10-01T06:00:00Z,26.5255,-82.0032,2.48,24.67,1111122 
SCCF RECON,ioos:station:SCCF:13:1,2013-10-01T07:00:00Z,26.5255,-82.0032,2.4,21.86,1111122 
SCCF RECON,ioos:station:SCCF:13:1,2013-10-01T08:00:00Z,26.5255,-82.0032,2.299,7.5,1111122 
SCCF RECON,ioos:station:SCCF:13:1,2013-10-01T09:00:00Z,26.5255,-82.0032,2.214,5.2,1111122 
SCCF RECON,ioos:station:SCCF:13:1,2013-10-01T10:00:00Z,26.5255,-82.0032,2.22,4.23,1111122 
SCCF RECON,ioos:station:SCCF:13:1,2013-10-01T11:00:00Z,26.5255,-82.0032,2.31,3.01,1111122 
SCCF RECON,ioos:station:SCCF:13:1,2013-10-01T12:00:00Z,26.5255,-82.0032,2.43,10.26,1111122 
SCCF RECON,ioos:station:SCCF:13:1,2013-10-01T13:00:00Z,26.5255,-82.0032,2.509,16.61,1111122 
SCCF RECON,ioos:station:SCCF:13:1,2013-10-01T14:00:00Z,26.5255,-82.0032,2.57,20.86,1111122 
SCCF RECON,ioos:station:SCCF:13:1,2013-10-01T15:00:00Z,26.5255,-82.0032,2.61,22.12,1111122 
SCCF RECON,ioos:station:SCCF:13:1,2013-10-01T16:00:00Z,26.5255,-82.0032,2.63,24.29,1111122 
SCCF RECON,ioos:station:SCCF:13:1,2013-10-01T17:00:00Z,26.5255,-82.0032,2.613,25.95,1111122 
SCCF RECON,ioos:station:SCCF:13:1,2013-10-01T18:00:00Z,26.5255,-82.0032,2.52,25.86,1111122 
SCCF RECON,ioos:station:SCCF:13:1,2013-10-01T19:00:00Z,26.5255,-82.0032,2.38,21.12,1111122 
SCCF RECON,ioos:station:SCCF:13:1,2013-10-01T20:00:00Z,26.5255,-82.0032,2.28,6.79,1111122 
SCCF RECON,ioos:station:SCCF:13:1,2013-10-01T21:00:00Z,26.5255,-82.0032,2.215,5.09,1111122 
SCCF RECON,ioos:station:SCCF:13:1,2013-10-01T22:00:00Z,26.5255,-82.0032,2.149,3.94,1111122 
SCCF RECON,ioos:station:SCCF:13:1,2013-10-01T23:00:00Z,26.5255,-82.0032,2.14,3.32,1111122 
SCCF RECON,ioos:station:SCCF:13:1,2013-10-02T00:00:00Z,26.5255,-82.0032,2.24,2.86,1111122 
SCCF RECON,ioos:station:SCCF:13:1,2013-10-02T01:00:00Z,26.5255,-82.0032,2.39,2.63,1111122 
SCCF RECON,ioos:station:SCCF:13:1,2013-10-02T02:00:00Z,26.5255,-82.0032,2.451,12.6,1111122 
SCCF RECON,ioos:station:SCCF:13:1,2013-10-02T03:00:00Z,26.5255,-82.0032,2.51,16.17,1111122 
SCCF RECON,ioos:station:SCCF:13:1,2013-10-02T04:00:00Z,26.5255,-82.0032,2.54,19.96,1111122 
SCCF RECON,ioos:station:SCCF:13:1,2013-10-02T05:00:00Z,26.5255,-82.0032,2.522,23.14,1111122 
SCCF RECON,ioos:station:SCCF:13:1,2013-10-02T06:00:00Z,26.5255,-82.0032,2.44,23.5,1111122 
SCCF RECON,ioos:station:SCCF:13:1,2013-10-02T07:00:00Z,26.5255,-82.0032,2.35,21.7,1111122 
SCCF RECON,ioos:station:SCCF:13:1,2013-10-02T08:00:00Z,26.5255,-82.0032,2.25,7.35,1111122 
SCCF RECON,ioos:station:SCCF:13:1,2013-10-02T09:00:00Z,26.5255,-82.0032,2.151,4.01,1111122 
SCCF RECON,ioos:station:SCCF:13:1,2013-10-02T10:00:00Z,26.5255,-82.0032,2.088,3.34,1111122 
SCCF RECON,ioos:station:SCCF:13:1,2013-10-02T11:00:00Z,26.5255,-82.0032,2.11,2.49,1111122 
SCCF RECON,ioos:station:SCCF:13:1,2013-10-02T12:00:00Z,26.5255,-82.0032,2.22,2.11,1111122 
SCCF RECON,ioos:station:SCCF:13:1,2013-10-02T13:00:00Z,26.5255,-82.0032,2.37,2.45,1111122 
SCCF RECON,ioos:station:SCCF:13:1,2013-10-02T14:00:00Z,26.5255,-82.0032,2.447,13.91,1111122 
SCCF RECON,ioos:station:SCCF:13:1,2013-10-02T15:00:00Z,26.5255,-82.0032,2.502,16.32,1111122 
SCCF RECON,ioos:station:SCCF:13:1,2013-10-02T16:00:00Z,26.5255,-82.0032,2.562,22.06,1111122 
SCCF RECON,ioos:station:SCCF:13:1,2013-10-02T17:00:00Z,26.5255,-82.0032,2.57,23.95,1111122 
SCCF RECON,ioos:station:SCCF:13:1,2013-10-02T18:00:00Z,26.5255,-82.0032,2.519,24.63,1111122 
SCCF RECON,ioos:station:SCCF:13:1,2013-10-02T19:00:00Z,26.5255,-82.0032,2.42,24.53,1111122 
SCCF RECON,ioos:station:SCCF:13:1,2013-10-02T20:00:00Z,26.5255,-82.0032,2.32,21.6,1111122 
SCCF RECON,ioos:station:SCCF:13:1,2013-10-02T21:00:00Z,26.5255,-82.0032,2.244,7.7,1111122 
SCCF RECON,ioos:station:SCCF:13:1,2013-10-02T22:00:00Z,26.5255,-82.0032,2.19,5.32,1111122 
SCCF RECON,ioos:station:SCCF:13:1,2013-10-02T23:00:00Z,26.5255,-82.0032,2.23,4.09,1111122 
SCCF RECON,ioos:station:SCCF:13:1,2013-10-03T00:00:00Z,26.5255,-82.0032,2.25,3.35,1111122 
SCCF RECON,ioos:station:SCCF:13:1,2013-10-03T01:00:00Z,26.5255,-82.0032,2.33,4.03,1111122 
SCCF RECON,ioos:station:SCCF:13:1,2013-10-03T02:00:00Z,26.5255,-82.0032,2.46,18.26,1111122 
SCCF RECON,ioos:station:SCCF:13:1,2013-10-03T03:00:00Z,26.5255,-82.0032,2.56,19.07,1111122 
SCCF RECON,ioos:station:SCCF:13:1,2013-10-03T04:00:00Z,26.5255,-82.0032,2.61,22.49,1111122 
SCCF RECON,ioos:station:SCCF:13:1,2013-10-03T05:00:00Z,26.5255,-82.0032,2.63,25.48,1111122 
SCCF RECON,ioos:station:SCCF:13:1,2013-10-03T06:00:00Z,26.5255,-82.0032,2.617,26.34,1111122 
SCCF RECON,ioos:station:SCCF:13:1,2013-10-03T07:00:00Z,26.5255,-82.0032,2.52,26.81,1111122 
SCCF RECON,ioos:station:SCCF:13:1,2013-10-03T08:00:00Z,26.5255,-82.0032,2.38,25.48,1111122 
SCCF RECON,ioos:station:SCCF:13:1,2013-10-03T09:00:00Z,26.5255,-82.0032,2.28,10.84,1111122 
SCCF RECON,ioos:station:SCCF:13:1,2013-10-03T10:00:00Z,26.5255,-82.0032,2.2,6.92,1111122 
SCCF RECON,ioos:station:SCCF:13:1,2013-10-03T11:00:00Z,26.5255,-82.0032,2.16,5.16,1111122 
SCCF RECON,ioos:station:SCCF:13:1,2013-10-03T12:00:00Z,26.5255,-82.0032,2.19,4.48,1111122 
SCCF RECON,ioos:station:SCCF:13:1,2013-10-03T13:00:00Z,26.5255,-82.0032,2.337,3.9,1111122 
SCCF RECON,ioos:station:SCCF:13:1,2013-10-03T14:00:00Z,26.5255,-82.0032,2.45,10.16,1111122 
SCCF RECON,ioos:station:SCCF:13:1,2013-10-03T15:00:00Z,26.5255,-82.0032,2.53,18.11,1111122 
SCCF RECON,ioos:station:SCCF:13:1,2013-10-03T16:00:00Z,26.5255,-82.0032,1.0,-9999.0,1111122 
SCCF RECON,ioos:station:SCCF:13:1,2013-10-03T17:00:00Z,26.5255,-82.0032,1.0,-9999.0,1111122 
SCCF RECON,ioos:station:SCCF:13:1,2013-10-03T18:00:00Z,26.5255,-82.0032,1.0,-9999.0,1111122 
SCCF RECON,ioos:station:SCCF:13:1,2013-10-03T19:00:00Z,26.5255,-82.0032,1.0,-9999.0,1111122 
SCCF RECON,ioos:station:SCCF:13:1,2013-10-03T20:00:00Z,26.5255,-82.0032,1.0,-9999.0,1111122 
SCCF RECON,ioos:station:SCCF:13:1,2013-10-03T21:00:00Z,26.5255,-82.0032,1.0,-9999.0,1111122 
SCCF RECON,ioos:station:SCCF:13:1,2013-10-03T22:00:00Z,26.5255,-82.0032,1.0,-9999.0,1111122 
SCCF RECON,ioos:station:SCCF:13:1,2013-10-03T23:00:00Z,26.5255,-82.0032,1.0,-9999.0,1111122 
SCCF RECON,ioos:station:SCCF:13:1,2013-10-04T00:00:00Z,26.5255,-82.0032,1.0,-9999.0,1111122 
SCCF RECON,ioos:station:SCCF:13:1,2013-10-04T01:00:00Z,26.5255,-82.0032,1.0,-9999.0,1111122 
SCCF RECON,ioos:station:SCCF:13:1,2013-10-04T02:00:00Z,26.5255,-82.0032,1.0,-9999.0,1111122 
SCCF RECON,ioos:station:SCCF:13:1,2013-10-04T03:00:00Z,26.5255,-82.0032,1.0,-9999.0,1111122 
SCCF RECON,ioos:station:SCCF:13:1,2013-10-04T04:00:00Z,26.5255,-82.0032,1.0,-9999.0,1111122 
SCCF RECON,ioos:station:SCCF:13:1,2013-10-04T05:00:00Z,26.5255,-82.0032,1.0,-9999.0,1111122 
SCCF RECON,ioos:station:SCCF:13:1,2013-10-04T06:00:00Z,26.5255,-82.0032,1.0,-9999.0,1111122 
SCCF RECON,ioos:station:SCCF:13:1,2013-10-04T07:00:00Z,26.5255,-82.0032,1.0,-9999.0,1111122 
SCCF RECON,ioos:station:SCCF:13:1,2013-10-04T08:00:00Z,26.5255,-82.0032,1.0,-9999.0,1111122 
SCCF RECON,ioos:station:SCCF:13:1,2013-10-04T09:00:00Z,26.5255,-82.0032,1.0,-9999.0,1111122 
SCCF RECON,ioos:station:SCCF:13:1,2013-10-04T10:00:00Z,26.5255,-82.0032,1.0,-9999.0,1111122 
SCCF RECON,ioos:station:SCCF:13:1,2013-10-04T11:00:00Z,26.5255,-82.0032,1.0,-9999.0,1111122 
SCCF RECON,ioos:station:SCCF:13:1,2013-10-04T12:00:00Z,26.5255,-82.0032,1.0,-9999.0,1111122 
SCCF RECON,ioos:station:SCCF:13:1,2013-10-04T13:00:00Z,26.5255,-82.0032,1.0,-9999.0,1111122 
SCCF RECON,ioos:station:SCCF:13:1,2013-10-04T14:00:00Z,26.5255,-82.0032,1.0,-9999.0,1111122 
SCCF RECON,ioos:station:SCCF:13:1,2013-10-04T15:00:00Z,26.5255,-82.0032,1.0,-9999.0,1111122 
SCCF RECON,ioos:station:SCCF:13:1,2013-10-04T16:00:00Z,26.5255,-82.0032,1.0,-9999.0,1111122 
SCCF RECON,ioos:station:SCCF:13:1,2013-10-04T17:00:00Z,26.5255,-82.0032,1.0,-9999.0,1111122 
SCCF RECON,ioos:station:SCCF:13:1,2013-10-04T18:00:00Z,26.5255,-82.0032,1.0,-9999.0,1111122 
SCCF RECON,ioos:station:SCCF:13:1,2013-10-04T19:00:00Z,26.5255,-82.0032,1.0,-9999.0,1111122 
SCCF RECON,ioos:station:SCCF:13:1,2013-10-04T20:00:00Z,26.5255,-82.0032,1.0,-9999.0,1111122 
SCCF RECON,ioos:station:SCCF:13:1,2013-10-04T21:00:00Z,26.5255,-82.0032,1.0,-9999.0,1111122 
SCCF RECON,ioos:station:SCCF:13:1,2013-10-04T22:00:00Z,26.5255,-82.0032,1.0,-9999.0,1111122 
SCCF RECON,ioos:station:SCCF:13:1,2013-10-04T23:00:00Z,26.5255,-82.0032,1.0,-9999.0,1111122 
SCCF RECON,ioos:station:SCCF:13:1,2013-10-05T00:00:00Z,26.5255,-82.0032,1.0,-9999.0,1111122 
SCCF RECON,ioos:station:SCCF:13:1,2013-10-05T01:00:00Z,26.5255,-82.0032,1.0,-9999.0,1111122 
SCCF RECON,ioos:station:SCCF:13:1,2013-10-05T02:00:00Z,26.5255,-82.0032,1.0,-9999.0,1111122 
SCCF RECON,ioos:station:SCCF:13:1,2013-10-05T03:00:00Z,26.5255,-82.0032,1.0,-9999.0,1111122 
SCCF RECON,ioos:station:SCCF:13:1,2013-10-05T04:00:00Z,26.5255,-82.0032,1.0,-9999.0,1111122 
SCCF RECON,ioos:station:SCCF:13:1,2013-10-05T05:00:00Z,26.5255,-82.0032,1.0,-9999.0,1111122 
SCCF RECON,ioos:station:SCCF:13:1,2013-10-05T06:00:00Z,26.5255,-82.0032,1.0,-9999.0,1111122 
SCCF RECON,ioos:station:SCCF:13:1,2013-10-05T07:00:00Z,26.5255,-82.0032,1.0,-9999.0,1111122 
SCCF RECON,ioos:station:SCCF:13:1,2013-10-05T08:00:00Z,26.5255,-82.0032,1.0,-9999.0,1111122 
SCCF RECON,ioos:station:SCCF:13:1,2013-10-05T09:00:00Z,26.5255,-82.0032,1.0,-9999.0,1111122 
SCCF RECON,ioos:station:SCCF:13:1,2013-10-05T10:00:00Z,26.5255,-82.0032,1.0,-9999.0,1111122 
SCCF RECON,ioos:station:SCCF:13:1,2013-10-05T11:00:00Z,26.5255,-82.0032,1.0,-9999.0,1111122 
SCCF RECON,ioos:station:SCCF:13:1,2013-10-05T12:00:00Z,26.5255,-82.0032,1.0,-9999.0,1111122 
SCCF RECON,ioos:station:SCCF:13:1,2013-10-05T13:00:00Z,26.5255,-82.0032,1.0,-9999.0,1111122 
SCCF RECON,ioos:station:SCCF:13:1,2013-10-05T14:00:00Z,26.5255,-82.0032,1.0,-9999.0,1111122 
SCCF RECON,ioos:station:SCCF:13:1,2013-10-05T15:00:00Z,26.5255,-82.0032,1.0,-9999.0,1111122 
SCCF RECON,ioos:station:SCCF:13:1,2013-10-05T16:00:00Z,26.5255,-82.0032,1.0,-9999.0,1111122 
SCCF RECON,ioos:station:SCCF:13:1,2013-10-05T17:00:00Z,26.5255,-82.0032,1.0,-9999.0,1111122 
SCCF RECON,ioos:station:SCCF:13:1,2013-10-05T18:00:00Z,26.5255,-82.0032,1.0,-9999.0,1111122 
SCCF RECON,ioos:station:SCCF:13:1,2013-10-05T19:00:00Z,26.5255,-82.0032,1.0,-9999.0,1111122 
SCCF RECON,ioos:station:SCCF:13:1,2013-10-05T20:00:00Z,26.5255,-82.0032,1.0,-9999.0,1111122 
SCCF RECON,ioos:station:SCCF:13:1,2013-10-05T21:00:00Z,26.5255,-82.0032,1.0,-9999.0,1111122 
SCCF RECON,ioos:station:SCCF:13:1,2013-10-05T22:00:00Z,26.5255,-82.0032,1.0,-9999.0,1111122 
SCCF RECON,ioos:station:SCCF:13:1,2013-10-05T23:00:00Z,26.5255,-82.0032,1.0,-9999.0,1111122 
SCCF RECON,ioos:station:SCCF:13:1,2013-10-06T00:00:00Z,26.5255,-82.0032,1.0,-9999.0,1111122 
SCCF RECON,ioos:station:SCCF:13:1,2013-10-06T01:00:00Z,26.5255,-82.0032,1.0,-9999.0,1111122 
SCCF RECON,ioos:station:SCCF:13:1,2013-10-06T02:00:00Z,26.5255,-82.0032,1.0,-9999.0,1111122 
SCCF RECON,ioos:station:SCCF:13:1,2013-10-06T03:00:00Z,26.5255,-82.0032,1.0,-9999.0,1111122 
SCCF RECON,ioos:station:SCCF:13:1,2013-10-06T04:00:00Z,26.5255,-82.0032,1.0,-9999.0,1111122 
SCCF RECON,ioos:station:SCCF:13:1,2013-10-06T05:00:00Z,26.5255,-82.0032,1.0,-9999.0,1111122 
SCCF RECON,ioos:station:SCCF:13:1,2013-10-06T06:00:00Z,26.5255,-82.0032,1.0,-9999.0,1111122 
SCCF RECON,ioos:station:SCCF:13:1,2013-10-06T07:00:00Z,26.5255,-82.0032,1.0,-9999.0,1111122 
SCCF RECON,ioos:station:SCCF:13:1,2013-10-06T08:00:00Z,26.5255,-82.0032,1.0,-9999.0,1111122 
SCCF RECON,ioos:station:SCCF:13:1,2013-10-06T09:00:00Z,26.5255,-82.0032,1.0,-9999.0,1111122 
SCCF RECON,ioos:station:SCCF:13:1,2013-10-06T10:00:00Z,26.5255,-82.0032,1.0,-9999.0,1111122 
SCCF RECON,ioos:station:SCCF:13:1,2013-10-06T11:00:00Z,26.5255,-82.0032,1.0,-9999.0,1111122 
SCCF RECON,ioos:station:SCCF:13:1,2013-10-06T12:00:00Z,26.5255,-82.0032,1.0,-9999.0,1111122 
SCCF RECON,ioos:station:SCCF:13:1,2013-10-06T13:00:00Z,26.5255,-82.0032,1.0,-9999.0,1111122 
SCCF RECON,ioos:station:SCCF:13:1,2013-10-06T14:00:00Z,26.5255,-82.0032,1.0,-9999.0,1111122 
SCCF RECON,ioos:station:SCCF:13:1,2013-10-06T15:00:00Z,26.5255,-82.0032,1.0,-9999.0,1111122 
SCCF RECON,ioos:station:SCCF:13:1,2013-10-06T16:00:00Z,26.5255,-82.0032,1.0,-9999.0,1111122 
SCCF RECON,ioos:station:SCCF:13:1,2013-10-06T17:00:00Z,26.5255,-82.0032,1.0,-9999.0,1111122 
SCCF RECON,ioos:station:SCCF:13:1,2013-10-06T18:00:00Z,26.5255,-82.0032,1.0,-9999.0,1111122 
SCCF RECON,ioos:station:SCCF:13:1,2013-10-06T19:00:00Z,26.5255,-82.0032,1.0,-9999.0,1111122 
SCCF RECON,ioos:station:SCCF:13:1,2013-10-06T20:00:00Z,26.5255,-82.0032,1.0,-9999.0,1111122 
SCCF RECON,ioos:station:SCCF:13:1,2013-10-06T21:00:00Z,26.5255,-82.0032,1.0,-9999.0,1111122 
SCCF RECON,ioos:station:SCCF:13:1,2013-10-06T22:00:00Z,26.5255,-82.0032,1.0,-9999.0,1111122 
SCCF RECON,ioos:station:SCCF:13:1,2013-10-06T23:00:00Z,26.5255,-82.0032,1.0,-9999.0,1111122 
SCCF RECON,ioos:station:SCCF:13:1,2013-10-07T00:00:00Z,26.5255,-82.0032,1.0,-9999.0,1111122 
SCCF RECON,ioos:station:SCCF:13:1,2013-10-07T01:00:00Z,26.5255,-82.0032,1.0,-9999.0,1111122 
SCCF RECON,ioos:station:SCCF:13:1,2013-10-07T02:00:00Z,26.5255,-82.0032,1.0,-9999.0,1111122 
SCCF RECON,ioos:station:SCCF:13:1,2013-10-07T03:00:00Z,26.5255,-82.0032,1.0,-9999.0,1111122 
SCCF RECON,ioos:station:SCCF:13:1,2013-10-07T04:00:00Z,26.5255,-82.0032,1.0,-9999.0,1111122 
SCCF RECON,ioos:station:SCCF:13:1,2013-10-07T05:00:00Z,26.5255,-82.0032,1.0,-9999.0,1111122 
SCCF RECON,ioos:station:SCCF:13:1,2013-10-07T06:00:00Z,26.5255,-82.0032,1.0,-9999.0,1111122 
SCCF RECON,ioos:station:SCCF:13:1,2013-10-07T07:00:00Z,26.5255,-82.0032,1.0,-9999.0,1111122 
SCCF RECON,ioos:station:SCCF:13:1,2013-10-07T08:00:00Z,26.5255,-82.0032,1.0,-9999.0,1111122 
SCCF RECON,ioos:station:SCCF:13:1,2013-10-07T09:00:00Z,26.5255,-82.0032,1.0,-9999.0,1111122 
SCCF RECON,ioos:station:SCCF:13:1,2013-10-07T10:00:00Z,26.5255,-82.0032,1.0,-9999.0,1111122 
SCCF RECON,ioos:station:SCCF:13:1,2013-10-07T11:00:00Z,26.5255,-82.0032,1.0,-9999.0,1111122 
SCCF RECON,ioos:station:SCCF:13:1,2013-10-07T12:00:00Z,26.5255,-82.0032,1.0,-9999.0,1111122 
SCCF RECON,ioos:station:SCCF:13:1,2013-10-07T13:00:00Z,26.5255,-82.0032,1.0,-9999.0,1111122 
SCCF RECON,ioos:station:SCCF:13:1,2013-10-07T14:00:00Z,26.5255,-82.0032,1.0,-9999.0,1111122 
SCCF RECON,ioos:station:SCCF:13:1,2013-10-07T15:00:00Z,26.5255,-82.0032,1.0,-9999.0,1111122 
SCCF RECON,ioos:station:SCCF:13:1,2013-10-07T16:00:00Z,26.5255,-82.0032,1.0,-9999.0,1111122 
SCCF RECON,ioos:station:SCCF:13:1,2013-10-07T17:00:00Z,26.5255,-82.0032,1.0,-9999.0,1111122 
SCCF RECON,ioos:station:SCCF:13:1,2013-10-07T18:00:00Z,26.5255,-82.0032,1.0,-9999.0,1111122 
SCCF RECON,ioos:station:SCCF:13:1,2013-10-07T19:00:00Z,26.5255,-82.0032,1.0,-9999.0,1111122 
SCCF RECON,ioos:station:SCCF:13:1,2013-10-07T20:00:00Z,26.5255,-82.0032,1.0,-9999.0,1111122 
SCCF RECON,ioos:station:SCCF:13:1,2013-10-07T21:00:00Z,26.5255,-82.0032,1.0,-9999.0,1111122 
SCCF RECON,ioos:station:SCCF:13:1,2013-10-07T22:00:00Z,26.5255,-82.0032,1.0,-9999.0,1111122 
SCCF RECON,ioos:station:SCCF:13:1,2013-10-07T23:00:00Z,26.5255,-82.0032,1.0,-9999.0,1111122 
SCCF RECON,ioos:station:SCCF:13:1,2013-10-08T00:00:00Z,26.5255,-82.0032,1.0,-9999.0,1111122 
SCCF RECON,ioos:station:SCCF:13:1,2013-10-08T01:00:00Z,26.5255,-82.0032,1.0,-9999.0,1111122 
SCCF RECON,ioos:station:SCCF:13:1,2013-10-08T02:00:00Z,26.5255,-82.0032,1.0,-9999.0,1111122 
SCCF RECON,ioos:station:SCCF:13:1,2013-10-08T03:00:00Z,26.5255,-82.0032,1.0,-9999.0,1111122 
SCCF RECON,ioos:station:SCCF:13:1,2013-10-08T04:00:00Z,26.5255,-82.0032,1.0,-9999.0,1111122 
SCCF RECON,ioos:station:SCCF:13:1,2013-10-08T05:00:00Z,26.5255,-82.0032,1.0,-9999.0,1111122 
SCCF RECON,ioos:station:SCCF:13:1,2013-10-08T06:00:00Z,26.5255,-82.0032,1.0,-9999.0,1111122 
SCCF RECON,ioos:station:SCCF:13:1,2013-10-08T07:00:00Z,26.5255,-82.0032,1.0,-9999.0,1111122 
SCCF RECON,ioos:station:SCCF:13:1,2013-10-08T08:00:00Z,26.5255,-82.0032,1.0,-9999.0,1111122 
SCCF RECON,ioos:station:SCCF:13:1,2013-10-08T09:00:00Z,26.5255,-82.0032,1.0,-9999.0,1111122 
SCCF RECON,ioos:station:SCCF:13:1,2013-10-08T10:00:00Z,26.5255,-82.0032,1.0,-9999.0,1111122 
SCCF RECON,ioos:station:SCCF:13:1,2013-10-08T11:00:00Z,26.5255,-82.0032,1.0,-9999.0,1111122 
SCCF RECON,ioos:station:SCCF:13:1,2013-10-08T12:00:00Z,26.5255,-82.0032,1.0,-9999.0,1111122 
SCCF RECON,ioos:station:SCCF:13:1,2013-10-08T13:00:00Z,26.5255,-82.0032,1.0,-9999.0,1111122 
SCCF RECON,ioos:station:SCCF:13:1,2013-10-08T14:00:00Z,26.5255,-82.0032,1.0,-9999.0,1111122 
SCCF RECON,ioos:station:SCCF:13:1,2013-10-08T15:00:00Z,26.5255,-82.0032,2.3,5.76,1111122 
SCCF RECON,ioos:station:SCCF:13:1,2013-10-08T16:00:00Z,26.5255,-82.0032,2.345,4.94,1111122 
SCCF RECON,ioos:station:SCCF:13:1,2013-10-08T17:00:00Z,26.5255,-82.0032,2.46,4.09,1111122 
SCCF RECON,ioos:station:SCCF:13:1,2013-10-08T18:00:00Z,26.5255,-82.0032,2.542,3.83,1111122 
SCCF RECON,ioos:station:SCCF:13:1,2013-10-08T19:00:00Z,26.5255,-82.0032,2.607,5.25,1111122 
SCCF RECON,ioos:station:SCCF:13:1,2013-10-08T20:00:00Z,26.5255,-82.0032,2.661,8.74,1111122 
SCCF RECON,ioos:station:SCCF:13:1,2013-10-08T21:00:00Z,26.5255,-82.0032,2.691,14.0,1111122 
SCCF RECON,ioos:station:SCCF:13:1,2013-10-08T22:00:00Z,26.5255,-82.0032,2.67,16.64,1111122 
SCCF RECON,ioos:station:SCCF:13:1,2013-10-08T23:00:00Z,26.5255,-82.0032,2.619,18.8,1111122 
SCCF RECON,ioos:station:SCCF:13:1,2013-10-09T00:00:00Z,26.5255,-82.0032,2.541,17.11,1111122 
SCCF RECON,ioos:station:SCCF:13:1,2013-10-09T01:00:00Z,26.5255,-82.0032,2.471,8.4,1111122 
SCCF RECON,ioos:station:SCCF:13:1,2013-10-09T02:00:00Z,26.5255,-82.0032,2.45,5.65,1111122 
SCCF RECON,ioos:station:SCCF:13:1,2013-10-09T03:00:00Z,26.5255,-82.0032,2.47,4.46,1111122 
SCCF RECON,ioos:station:SCCF:13:1,2013-10-09T04:00:00Z,26.5255,-82.0032,2.56,3.76,1111122 
SCCF RECON,ioos:station:SCCF:13:1,2013-10-09T05:00:00Z,26.5255,-82.0032,2.66,13.09,1111122 
SCCF RECON,ioos:station:SCCF:13:1,2013-10-09T06:00:00Z,26.5255,-82.0032,2.75,11.45,1111122 
SCCF RECON,ioos:station:SCCF:13:1,2013-10-09T07:00:00Z,26.5255,-82.0032,2.81,18.33,1111122 
SCCF RECON,ioos:station:SCCF:13:1,2013-10-09T08:00:00Z,26.5255,-82.0032,2.828,21.5,1111122 
SCCF RECON,ioos:station:SCCF:13:1,2013-10-09T09:00:00Z,26.5255,-82.0032,2.8,22.69,1111122 
SCCF RECON,ioos:station:SCCF:13:1,2013-10-09T10:00:00Z,26.5255,-82.0032,2.71,24.34,1111122 
SCCF RECON,ioos:station:SCCF:13:1,2013-10-09T11:00:00Z,26.5255,-82.0032,2.59,22.23,1111122 
SCCF RECON,ioos:station:SCCF:13:1,2013-10-09T12:00:00Z,26.5255,-82.0032,2.47,8.65,1111122 
SCCF RECON,ioos:station:SCCF:13:1,2013-10-09T13:00:00Z,26.5255,-82.0032,2.39,6.31,1111122 
SCCF RECON,ioos:station:SCCF:13:1,2013-10-09T14:00:00Z,26.5255,-82.0032,2.305,4.79,1111122 
SCCF RECON,ioos:station:SCCF:13:1,2013-10-09T15:00:00Z,26.5255,-82.0032,2.238,3.58,1111122 
SCCF RECON,ioos:station:SCCF:13:1,2013-10-09T16:00:00Z,26.5255,-82.0032,2.204,3.02,1111122 
SCCF RECON,ioos:station:SCCF:13:1,2013-10-09T17:00:00Z,26.5255,-82.0032,2.286,2.24,1111122 
SCCF RECON,ioos:station:SCCF:13:1,2013-10-09T18:00:00Z,26.5255,-82.0032,2.41,1.81,1111122 
SCCF RECON,ioos:station:SCCF:13:1,2013-10-09T19:00:00Z,26.5255,-82.0032,2.48,2.24,1111122 
SCCF RECON,ioos:station:SCCF:13:1,2013-10-09T20:00:00Z,26.5255,-82.0032,2.52,5.12,1111122 
SCCF RECON,ioos:station:SCCF:13:1,2013-10-09T21:00:00Z,26.5255,-82.0032,2.59,12.63,1111122 
SCCF RECON,ioos:station:SCCF:13:1,2013-10-09T22:00:00Z,26.5255,-82.0032,2.63,18.87,1111122 
SCCF RECON,ioos:station:SCCF:13:1,2013-10-09T23:00:00Z,26.5255,-82.0032,2.62,19.85,1111122 
SCCF RECON,ioos:station:SCCF:13:1,2013-10-10T00:00:00Z,26.5255,-82.0032,2.58,21.83,1111122 
SCCF RECON,ioos:station:SCCF:13:1,2013-10-10T01:00:00Z,26.5255,-82.0032,2.528,21.01,1111122 
SCCF RECON,ioos:station:SCCF:13:1,2013-10-10T02:00:00Z,26.5255,-82.0032,2.49,18.36,1111122 
SCCF RECON,ioos:station:SCCF:13:1,2013-10-10T03:00:00Z,26.5255,-82.0032,2.469,13.64,1111122 
SCCF RECON,ioos:station:SCCF:13:1,2013-10-10T04:00:00Z,26.5255,-82.0032,2.5,9.86,1111122 
SCCF RECON,ioos:station:SCCF:13:1,2013-10-10T05:00:00Z,26.5255,-82.0032,2.57,19.2,1111122 
SCCF RECON,ioos:station:SCCF:13:1,2013-10-10T06:00:00Z,26.5255,-82.0032,2.65,17.47,1111122 
SCCF RECON,ioos:station:SCCF:13:1,2013-10-10T07:00:00Z,26.5255,-82.0032,2.72,19.24,1111122 
SCCF RECON,ioos:station:SCCF:13:1,2013-10-10T08:00:00Z,26.5255,-82.0032,2.78,23.53,1111122 
SCCF RECON,ioos:station:SCCF:13:1,2013-10-10T09:00:00Z,26.5255,-82.0032,2.79,24.67,1111122 
SCCF RECON,ioos:station:SCCF:13:1,2013-10-10T10:00:00Z,26.5255,-82.0032,2.76,25.48,1111122 
SCCF RECON,ioos:station:SCCF:13:1,2013-10-10T11:00:00Z,26.5255,-82.0032,2.69,26.2,1111122 
SCCF RECON,ioos:station:SCCF:13:1,2013-10-10T12:00:00Z,26.5255,-82.0032,2.58,25.89,1111122 
SCCF RECON,ioos:station:SCCF:13:1,2013-10-10T13:00:00Z,26.5255,-82.0032,2.47,16.0,1111122 
SCCF RECON,ioos:station:SCCF:13:1,2013-10-10T14:00:00Z,26.5255,-82.0032,2.381,7.27,1111122 
SCCF RECON,ioos:station:SCCF:13:1,2013-10-10T15:00:00Z,26.5255,-82.0032,2.309,6.3,1111122 
SCCF RECON,ioos:station:SCCF:13:1,2013-10-10T16:00:00Z,26.5255,-82.0032,2.24,5.45,1111122 
SCCF RECON,ioos:station:SCCF:13:1,2013-10-10T17:00:00Z,26.5255,-82.0032,2.211,4.63,1111122 
SCCF RECON,ioos:station:SCCF:13:1,2013-10-10T18:00:00Z,26.5255,-82.0032,2.27,3.74,1111122 
SCCF RECON,ioos:station:SCCF:13:1,2013-10-10T19:00:00Z,26.5255,-82.0032,2.363,3.12,1111122 
SCCF RECON,ioos:station:SCCF:13:1,2013-10-10T20:00:00Z,26.5255,-82.0032,2.43,3.46,1111122 
SCCF RECON,ioos:station:SCCF:13:1,2013-10-10T21:00:00Z,26.5255,-82.0032,2.49,10.65,1111122 
SCCF RECON,ioos:station:SCCF:13:1,2013-10-10T22:00:00Z,26.5255,-82.0032,2.54,13.17,1111122 
SCCF RECON,ioos:station:SCCF:13:1,2013-10-10T23:00:00Z,26.5255,-82.0032,2.59,18.83,1111122 
SCCF RECON,ioos:station:SCCF:13:1,2013-10-11T00:00:00Z,26.5255,-82.0032,2.59,21.2,1111122 
SCCF RECON,ioos:station:SCCF:13:1,2013-10-11T01:00:00Z,26.5255,-82.0032,2.57,22.12,1111122 
SCCF RECON,ioos:station:SCCF:13:1,2013-10-11T02:00:00Z,26.5255,-82.0032,2.56,22.55,1111122 
SCCF RECON,ioos:station:SCCF:13:1,2013-10-11T03:00:00Z,26.5255,-82.0032,2.53,22.06,1111122 
SCCF RECON,ioos:station:SCCF:13:1,2013-10-11T04:00:00Z,26.5255,-82.0032,2.51,18.89,1111122 
SCCF RECON,ioos:station:SCCF:13:1,2013-10-11T05:00:00Z,26.5255,-82.0032,2.5,16.95,1111122 
SCCF RECON,ioos:station:SCCF:13:1,2013-10-11T06:00:00Z,26.5255,-82.0032,2.55,22.21,1111122 
SCCF RECON,ioos:station:SCCF:13:1,2013-10-11T07:00:00Z,26.5255,-82.0032,2.63,20.12,1111122 
SCCF RECON,ioos:station:SCCF:13:1,2013-10-11T08:00:00Z,26.5255,-82.0032,2.71,21.22,1111122 
SCCF RECON,ioos:station:SCCF:13:1,2013-10-11T09:00:00Z,26.5255,-82.0032,2.752,24.96,1111122 
SCCF RECON,ioos:station:SCCF:13:1,2013-10-11T10:00:00Z,26.5255,-82.0032,2.77,25.77,1111122 
SCCF RECON,ioos:station:SCCF:13:1,2013-10-11T11:00:00Z,26.5255,-82.0032,2.77,25.71,1111122 
SCCF RECON,ioos:station:SCCF:13:1,2013-10-11T12:00:00Z,26.5255,-82.0032,2.74,26.69,1111122 
SCCF RECON,ioos:station:SCCF:13:1,2013-10-11T13:00:00Z,26.5255,-82.0032,2.639,26.9,1111122 
SCCF RECON,ioos:station:SCCF:13:1,2013-10-11T14:00:00Z,26.5255,-82.0032,2.52,20.86,1111122 
SCCF RECON,ioos:station:SCCF:13:1,2013-10-11T15:00:00Z,26.5255,-82.0032,2.44,10.63,1111122 
SCCF RECON,ioos:station:SCCF:13:1,2013-10-11T16:00:00Z,26.5255,-82.0032,2.362,8.64,1111122 
SCCF RECON,ioos:station:SCCF:13:1,2013-10-11T17:00:00Z,26.5255,-82.0032,2.29,7.43,1111122 
SCCF RECON,ioos:station:SCCF:13:1,2013-10-11T18:00:00Z,26.5255,-82.0032,2.26,7.45,1111122 